DAL2005 KSLC-KBOI

Flight info

Callsign DAL2005
Flight time 0h 50m
Altitude 26000
Route CGULL1 TWF BROPH SPUUD4
Aircraft B738/M-SDE2E3FGHIRWXY/LB1

Departure

Time 2026-05-05 15:28
Airport Salt Lake City International Airport (KSLC)

Arrival

Time 2026-05-05 16:18
Airport Boise Air Terminal/Gowen Field (KBOI)
Time Latitude Longitude Altitude Speed Heading
2026-05-05 14:01 40.78473 -111.99095 4230 ft 0 kts
2026-05-05 15:12 40.78466 -111.99097 4230 ft 4 kts 10°
2026-05-05 15:12 40.78440 -111.99098 4230 ft 4 kts 340°
2026-05-05 15:12 40.78423 -111.99080 4230 ft 4 kts 285°
2026-05-05 15:13 40.78421 -111.99059 4230 ft 1 kts 265°
2026-05-05 15:13 40.78421 -111.99056 4230 ft 1 kts 265°
2026-05-05 15:18 40.78421 -111.99057 4230 ft 0 kts 265°
2026-05-05 15:18 40.78421 -111.99067 4230 ft 2 kts 265°
2026-05-05 15:18 40.78418 -111.99104 4230 ft 8 kts 264°
2026-05-05 15:18 40.78411 -111.99206 4230 ft 12 kts 266°
2026-05-05 15:19 40.78412 -111.99302 4230 ft 10 kts 276°
2026-05-05 15:19 40.78421 -111.99381 4230 ft 8 kts 284°
2026-05-05 15:19 40.78449 -111.99428 4230 ft 6 kts 326°
2026-05-05 15:19 40.78511 -111.99445 4228 ft 14 kts 355°
2026-05-05 15:20 40.78628 -111.99460 4230 ft 17 kts 354°
2026-05-05 15:20 40.78742 -111.99474 4230 ft 16 kts 355°
2026-05-05 15:20 40.78859 -111.99489 4231 ft 17 kts 354°
2026-05-05 15:20 40.78977 -111.99503 4230 ft 16 kts 355°
2026-05-05 15:21 40.79111 -111.99519 4230 ft 21 kts 354°
2026-05-05 15:21 40.79250 -111.99535 4230 ft 19 kts 356°
2026-05-05 15:21 40.79375 -111.99548 4230 ft 17 kts 355°
2026-05-05 15:21 40.79485 -111.99560 4230 ft 15 kts 355°
2026-05-05 15:22 40.79588 -111.99572 4230 ft 17 kts 355°
2026-05-05 15:22 40.79716 -111.99588 4230 ft 18 kts 354°
2026-05-05 15:22 40.79836 -111.99604 4230 ft 17 kts 355°
2026-05-05 15:22 40.79963 -111.99619 4230 ft 20 kts 354°
2026-05-05 15:23 40.80105 -111.99634 4230 ft 20 kts 355°
2026-05-05 15:23 40.80239 -111.99648 4230 ft 19 kts 354°
2026-05-05 15:23 40.80361 -111.99663 4230 ft 17 kts 354°
2026-05-05 15:23 40.80473 -111.99677 4230 ft 15 kts 355°
2026-05-05 15:24 40.80575 -111.99690 4230 ft 15 kts 355°
2026-05-05 15:24 40.80679 -111.99703 4230 ft 14 kts 356°
2026-05-05 15:24 40.80757 -111.99720 4230 ft 10 kts 323°
2026-05-05 15:24 40.80770 -111.99781 4229 ft 2 kts 267°
2026-05-05 15:25 40.80770 -111.99783 4229 ft 0 kts 267°
2026-05-05 15:26 40.80769 -111.99809 4229 ft 9 kts 265°
2026-05-05 15:26 40.80753 -111.99906 4230 ft 10 kts 242°
2026-05-05 15:27 40.80720 -111.99925 4230 ft 0 kts 175°
2026-05-05 15:27 40.80525 -111.99901 4230 ft 62 kts 174°
2026-05-05 15:27 40.79877 -111.99827 4230 ft 123 kts 175°
2026-05-05 15:28 40.78846 -111.99691 4272 ft 170 kts 174°
2026-05-05 15:28 40.77633 -111.99519 4755 ft 183 kts 174°
2026-05-05 15:28 40.76382 -111.99941 5208 ft 200 kts 225°
2026-05-05 15:28 40.75711 -112.01541 5781 ft 207 kts 240°
2026-05-05 15:29 40.75083 -112.03205 6235 ft 203 kts 257°
2026-05-05 15:29 40.75339 -112.05027 6732 ft 210 kts 303°
2026-05-05 15:29 40.76421 -112.06411 7123 ft 220 kts 321°
2026-05-05 15:29 40.77633 -112.07690 7470 ft 233 kts 320°
2026-05-05 15:30 40.78920 -112.09076 7804 ft 246 kts 320°
2026-05-05 15:30 40.80271 -112.10571 8103 ft 261 kts 319°
2026-05-05 15:30 40.81688 -112.12178 8388 ft 275 kts 319°
2026-05-05 15:30 40.83142 -112.13864 8665 ft 279 kts 317°
2026-05-05 15:31 40.84576 -112.15572 8964 ft 278 kts 317°
2026-05-05 15:31 40.85999 -112.17284 9265 ft 278 kts 317°
2026-05-05 15:31 40.87431 -112.19008 9710 ft 274 kts 317°
2026-05-05 15:31 40.88856 -112.20724 10237 ft 281 kts 317°
2026-05-05 15:32 40.90316 -112.22481 10736 ft 286 kts 317°
2026-05-05 15:32 40.91835 -112.24311 11042 ft 305 kts 317°
2026-05-05 15:32 40.93446 -112.26250 11376 ft 322 kts 317°
2026-05-05 15:32 40.95145 -112.28297 11716 ft 338 kts 317°
2026-05-05 15:33 40.96912 -112.30425 12269 ft 346 kts 317°
2026-05-05 15:33 40.98704 -112.32586 12805 ft 353 kts 317°
2026-05-05 15:33 41.00542 -112.34804 13312 ft 361 kts 317°
2026-05-05 15:33 41.02412 -112.37060 13797 ft 364 kts 317°
2026-05-05 15:34 41.04285 -112.39323 14306 ft 365 kts 317°
2026-05-05 15:34 41.06155 -112.41583 14899 ft 369 kts 318°
2026-05-05 15:34 41.08171 -112.43687 15577 ft 371 kts 327°
2026-05-05 15:34 41.10367 -112.45507 16236 ft 373 kts 329°
2026-05-05 15:35 41.12588 -112.47320 16851 ft 376 kts 328°
2026-05-05 15:35 41.14815 -112.49168 17474 ft 379 kts 328°
2026-05-05 15:35 41.17046 -112.51055 18077 ft 381 kts 326°
2026-05-05 15:35 41.19203 -112.53134 18682 ft 384 kts 323°
2026-05-05 15:36 41.21314 -112.55322 19220 ft 388 kts 322°
2026-05-05 15:36 41.23453 -112.57546 19750 ft 391 kts 322°
2026-05-05 15:36 41.25610 -112.59762 20289 ft 394 kts 323°
2026-05-05 15:36 41.27778 -112.62028 20809 ft 397 kts 319°
2026-05-05 15:37 41.29720 -112.64623 21302 ft 400 kts 313°
2026-05-05 15:37 41.31588 -112.67390 21886 ft 400 kts 312°
2026-05-05 15:37 41.33429 -112.70147 22564 ft 397 kts 312°
2026-05-05 15:37 41.35269 -112.72881 23234 ft 394 kts 313°
2026-05-05 15:38 41.37102 -112.75579 23829 ft 393 kts 313°
2026-05-05 15:38 41.38943 -112.78275 24380 ft 393 kts 313°
2026-05-05 15:38 41.40778 -112.80971 24958 ft 392 kts 312°
2026-05-05 15:38 41.42573 -112.83678 25552 ft 390 kts 312°
2026-05-05 15:39 41.44358 -112.86407 25918 ft 391 kts 312°
2026-05-05 15:39 41.46140 -112.89146 25900 ft 389 kts 312°
2026-05-05 15:39 41.47889 -112.91837 25913 ft 388 kts 312°
2026-05-05 15:39 41.49678 -112.94590 25919 ft 388 kts 312°
2026-05-05 15:40 41.51421 -112.97269 25916 ft 389 kts 312°
2026-05-05 15:40 41.53205 -113.00011 25913 ft 390 kts 312°
2026-05-05 15:40 41.54983 -113.02744 25917 ft 390 kts 312°
2026-05-05 15:40 41.56762 -113.05480 25915 ft 390 kts 312°
2026-05-05 15:41 41.58540 -113.08216 25918 ft 390 kts 312°
2026-05-05 15:41 41.60316 -113.10951 25923 ft 390 kts 312°
2026-05-05 15:41 41.62089 -113.13686 25928 ft 389 kts 312°
2026-05-05 15:41 41.63865 -113.16426 25924 ft 389 kts 312°
2026-05-05 15:42 41.65631 -113.19153 25922 ft 388 kts 312°
2026-05-05 15:42 41.67398 -113.21885 25926 ft 388 kts 312°
2026-05-05 15:42 41.69162 -113.24615 25924 ft 388 kts 312°
2026-05-05 15:42 41.70929 -113.27351 25929 ft 387 kts 312°
2026-05-05 15:43 41.72692 -113.30085 25929 ft 387 kts 313°
2026-05-05 15:43 41.74429 -113.32779 25926 ft 387 kts 313°
2026-05-05 15:43 41.76186 -113.35507 25929 ft 387 kts 312°
2026-05-05 15:43 41.77941 -113.38235 25933 ft 386 kts 313°
2026-05-05 15:44 41.79694 -113.40962 25936 ft 386 kts 312°
2026-05-05 15:44 41.81442 -113.43685 25937 ft 386 kts 313°
2026-05-05 15:44 41.83197 -113.46420 25934 ft 386 kts 313°
2026-05-05 15:44 41.84377 -113.48261 25934 ft 386 kts 313°
2026-05-05 15:45 41.86128 -113.50993 25933 ft 386 kts 313°
2026-05-05 15:45 41.87877 -113.53726 25937 ft 386 kts 313°
2026-05-05 15:45 41.89630 -113.56468 25939 ft 386 kts 313°
2026-05-05 15:45 41.91376 -113.59201 25938 ft 387 kts 313°
2026-05-05 15:46 41.93131 -113.61952 25935 ft 387 kts 313°
2026-05-05 15:46 41.94851 -113.64649 25934 ft 387 kts 313°
2026-05-05 15:46 41.96601 -113.67396 25935 ft 387 kts 313°
2026-05-05 15:46 41.98360 -113.70160 25935 ft 386 kts 313°
2026-05-05 15:47 42.00105 -113.72904 25937 ft 386 kts 313°
2026-05-05 15:47 42.01849 -113.75649 25934 ft 386 kts 313°
2026-05-05 15:47 42.03590 -113.78393 25932 ft 385 kts 313°
2026-05-05 15:47 42.05324 -113.81128 25931 ft 384 kts 313°
2026-05-05 15:48 42.07058 -113.83864 25933 ft 384 kts 313°
2026-05-05 15:48 42.08788 -113.86598 25942 ft 383 kts 313°
2026-05-05 15:48 42.10517 -113.89332 25938 ft 384 kts 313°
2026-05-05 15:48 42.12250 -113.92076 25931 ft 384 kts 313°
2026-05-05 15:49 42.13980 -113.94816 25936 ft 384 kts 313°
2026-05-05 15:49 42.15710 -113.97558 25934 ft 384 kts 313°
2026-05-05 15:49 42.17438 -114.00300 25932 ft 384 kts 313°
2026-05-05 15:49 42.19151 -114.03008 25935 ft 384 kts 313°
2026-05-05 15:50 42.20890 -114.05751 25935 ft 384 kts 313°
2026-05-05 15:50 42.22627 -114.08495 25936 ft 385 kts 313°
2026-05-05 15:50 42.24358 -114.11231 25933 ft 385 kts 313°
2026-05-05 15:50 42.26105 -114.13995 25938 ft 385 kts 313°
2026-05-05 15:51 42.27846 -114.16755 25934 ft 385 kts 313°
2026-05-05 15:51 42.29582 -114.19509 25930 ft 385 kts 313°
2026-05-05 15:51 42.31316 -114.22263 25935 ft 385 kts 313°
2026-05-05 15:51 42.33051 -114.25022 25931 ft 385 kts 313°
2026-05-05 15:52 42.34783 -114.27778 25937 ft 384 kts 313°
2026-05-05 15:52 42.36508 -114.30525 25938 ft 384 kts 313°
2026-05-05 15:52 42.38235 -114.33281 25932 ft 384 kts 313°
2026-05-05 15:52 42.39965 -114.36041 25935 ft 383 kts 313°
2026-05-05 15:53 42.41666 -114.38757 25936 ft 383 kts 313°
2026-05-05 15:53 42.43387 -114.41509 25932 ft 383 kts 313°
2026-05-05 15:53 42.45128 -114.44295 25934 ft 382 kts 313°
2026-05-05 15:53 42.46821 -114.47007 25937 ft 382 kts 313°
2026-05-05 15:54 42.48536 -114.49754 25938 ft 382 kts 313°
2026-05-05 15:54 42.50252 -114.52497 25932 ft 382 kts 313°
2026-05-05 15:54 42.51969 -114.55239 25936 ft 381 kts 313°
2026-05-05 15:54 42.53685 -114.57982 25937 ft 381 kts 313°
2026-05-05 15:55 42.55401 -114.60726 25935 ft 381 kts 313°
2026-05-05 15:55 42.57111 -114.63466 25933 ft 381 kts 313°
2026-05-05 15:55 42.58826 -114.66217 25937 ft 381 kts 313°
2026-05-05 15:55 42.60540 -114.68969 25935 ft 381 kts 314°
2026-05-05 15:56 42.62250 -114.71717 25937 ft 381 kts 314°
2026-05-05 15:56 42.63957 -114.74464 25929 ft 377 kts 314°
2026-05-05 15:56 42.65618 -114.77142 25918 ft 364 kts 314°
2026-05-05 15:56 42.67227 -114.79737 25920 ft 356 kts 314°
2026-05-05 15:57 42.68819 -114.82303 25930 ft 355 kts 314°
2026-05-05 15:57 42.70413 -114.84872 25867 ft 357 kts 314°
2026-05-05 15:57 42.72015 -114.87453 25569 ft 356 kts 314°
2026-05-05 15:57 42.73665 -114.89944 25204 ft 353 kts 316°
2026-05-05 15:58 42.75351 -114.92351 24845 ft 350 kts 317°
2026-05-05 15:58 42.77036 -114.94725 24478 ft 348 kts 317°
2026-05-05 15:58 42.78709 -114.97088 24104 ft 345 kts 316°
2026-05-05 15:58 42.80367 -114.99442 23739 ft 343 kts 316°
2026-05-05 15:59 42.82012 -115.01790 23367 ft 341 kts 316°
2026-05-05 15:59 42.83633 -115.04113 22997 ft 340 kts 316°
2026-05-05 15:59 42.85243 -115.06424 22634 ft 338 kts 316°
2026-05-05 15:59 42.86879 -115.08775 22264 ft 336 kts 316°
2026-05-05 16:00 42.88482 -115.11082 21902 ft 334 kts 316°
2026-05-05 16:00 42.90075 -115.13376 21578 ft 332 kts 316°
2026-05-05 16:00 42.91653 -115.15650 21221 ft 330 kts 316°
2026-05-05 16:00 42.93223 -115.17921 20852 ft 328 kts 315°
2026-05-05 16:01 42.94785 -115.20186 20488 ft 327 kts 315°
2026-05-05 16:01 42.96318 -115.22412 20142 ft 325 kts 315°
2026-05-05 16:01 42.97886 -115.24691 19781 ft 324 kts 315°
2026-05-05 16:01 42.99401 -115.26893 19433 ft 322 kts 315°
2026-05-05 16:02 43.00930 -115.29119 19084 ft 320 kts 315°
2026-05-05 16:02 43.02450 -115.31333 18737 ft 318 kts 315°
2026-05-05 16:02 43.03964 -115.33539 18392 ft 317 kts 315°
2026-05-05 16:02 43.05462 -115.35723 18053 ft 315 kts 315°
2026-05-05 16:03 43.06951 -115.37897 17715 ft 313 kts 315°
2026-05-05 16:03 43.08433 -115.40061 17379 ft 311 kts 315°
2026-05-05 16:03 43.09906 -115.42215 17041 ft 309 kts 315°
2026-05-05 16:03 43.11373 -115.44359 16703 ft 308 kts 315°
2026-05-05 16:04 43.12831 -115.46494 16370 ft 307 kts 315°
2026-05-05 16:04 43.14284 -115.48623 16036 ft 306 kts 314°
2026-05-05 16:04 43.15740 -115.50753 15698 ft 305 kts 315°
2026-05-05 16:04 43.17186 -115.52868 15360 ft 304 kts 314°
2026-05-05 16:05 43.18637 -115.54992 15025 ft 303 kts 314°
2026-05-05 16:05 43.20078 -115.57101 14699 ft 303 kts 314°
2026-05-05 16:05 43.21515 -115.59208 14388 ft 302 kts 314°
2026-05-05 16:05 43.22931 -115.61286 14223 ft 295 kts 314°
2026-05-05 16:06 43.24318 -115.63322 13819 ft 297 kts 314°
2026-05-05 16:06 43.25731 -115.65396 13516 ft 297 kts 314°
2026-05-05 16:06 43.27127 -115.67462 13188 ft 293 kts 311°
2026-05-05 16:06 43.28227 -115.69796 12902 ft 289 kts 298°
2026-05-05 16:07 43.28988 -115.71888 12652 ft 288 kts 297°
2026-05-05 16:07 43.29878 -115.74355 12348 ft 288 kts 297°
2026-05-05 16:07 43.30772 -115.76814 12044 ft 288 kts 297°
2026-05-05 16:07 43.31672 -115.79262 11737 ft 287 kts 297°
2026-05-05 16:08 43.32578 -115.81704 11430 ft 287 kts 297°
2026-05-05 16:08 43.33485 -115.84141 11127 ft 286 kts 297°
2026-05-05 16:08 43.34392 -115.86575 10818 ft 286 kts 297°
2026-05-05 16:08 43.35299 -115.89011 10514 ft 285 kts 297°
2026-05-05 16:09 43.36196 -115.91421 10213 ft 280 kts 297°
2026-05-05 16:09 43.37045 -115.93707 10091 ft 266 kts 297°
2026-05-05 16:09 43.37868 -115.95921 9954 ft 255 kts 297°
2026-05-05 16:09 43.38672 -115.98089 9695 ft 254 kts 297°
2026-05-05 16:10 43.39469 -116.00237 9454 ft 252 kts 297°
2026-05-05 16:10 43.40262 -116.02378 9199 ft 250 kts 298°
2026-05-05 16:10 43.41052 -116.04508 8923 ft 249 kts 298°
2026-05-05 16:10 43.41836 -116.06629 8676 ft 248 kts 298°
2026-05-05 16:11 43.42616 -116.08738 8419 ft 247 kts 298°
2026-05-05 16:11 43.44899 -116.14921 7753 ft 232 kts 298°
2026-05-05 16:12 43.45615 -116.16863 7617 ft 223 kts 298°
2026-05-05 16:12 43.46979 -116.20650 7418 ft 223 kts 296°
2026-05-05 16:13 43.48972 -116.26505 7054 ft 223 kts 296°
2026-05-05 16:13 43.49642 -116.28371 6987 ft 213 kts 298°
2026-05-05 16:13 43.50328 -116.30171 7015 ft 212 kts 299°
2026-05-05 16:14 43.51711 -116.33795 6988 ft 213 kts 298°
2026-05-05 16:14 43.53575 -116.36807 6375 ft 207 kts 334°
2026-05-05 16:15 43.56258 -116.37316 6041 ft 194 kts 12°
2026-05-05 16:15 43.58581 -116.35531 5098 ft 201 kts 48°
2026-05-05 16:16 43.59533 -116.32072 4158 ft 186 kts 87°
2026-05-05 16:16 43.58820 -116.29063 3723 ft 162 kts 110°
2026-05-05 16:17 43.57879 -116.26282 3244 ft 161 kts 116°
2026-05-05 16:17 43.57423 -116.24875 3015 ft 159 kts 117°
2026-05-05 16:18 43.56510 -116.22207 2879 ft 126 kts 114°
2026-05-05 16:18 43.56230 -116.21375 2881 ft 66 kts 114°
2026-05-05 16:18 43.56120 -116.21037 2881 ft 7 kts 113°
2026-05-05 16:19 43.56098 -116.20936 2881 ft 13 kts 92°
2026-05-05 16:19 43.56139 -116.20869 2881 ft 8 kts 19°
2026-05-05 16:19 43.56152 -116.20868 2881 ft 0 kts 358°
2026-05-05 16:22 43.56186 -116.20897 2881 ft 10 kts 306°
2026-05-05 16:22 43.56249 -116.21070 2881 ft 14 kts 294°
2026-05-05 16:23 43.56338 -116.21337 2881 ft 15 kts 294°
2026-05-05 16:23 43.56383 -116.21470 2880 ft 15 kts 295°
2026-05-05 16:23 43.56492 -116.21723 2880 ft 15 kts 336°
2026-05-05 16:24 43.56593 -116.21743 2880 ft 15 kts 355°
2026-05-05 16:24 43.56696 -116.21753 2880 ft 14 kts 358°
2026-05-05 16:24 43.56800 -116.21807 2880 ft 5 kts 265°
2026-05-05 16:25 43.56780 -116.21846 2880 ft 5 kts 221°
2026-05-05 16:25 43.56763 -116.21866 2880 ft 0 kts 221°